San Antonio, TX

2:32 AM CDT on June 26, 2017 (GMT -0500)
San Antonio International

Weather History for KSAT - September, 2012

Change the Weather History Date:

Sunday, September 9, 2012

  Actual Average Record
Temperature  
Mean Temperature 79 °F 82 °F  
Max Temperature 94 °F 92 °F 102 °F (1893)
Min Temperature 63 °F 71 °F 57 °F (1957)
Degree Days  
Heating Degree Days 0 0  
Month to date heating degree days 0 0  
Since 1 July heating degree days 0 0  
Cooling Degree Days 14 17  
Month to date cooling degree days 190 159  
Year to date cooling degree days 2983 2550  
Growing Degree Days 28 (Base 50)    
Moisture  
Dew Point 42 °F    
Average Humidity 35    
Maximum Humidity 56    
Minimum Humidity 14    
Precipitation  
Precipitation 0.00 in 0.11 in 6.83 in (1921)
Month to date precipitation 0.00 0.97  
Year to date precipitation 29.05 21.91  
Snow  
Snow 0.00 in - - ()
Month to date snowfall 0.0  
Since 1 July snowfall 0.0  
Since 1 September snowfall 0.0  
Snow Depth 0.00 in    
Sea Level Pressure  
Sea Level Pressure 30.04 in    
Wind  
Wind Speed 6 mph (North)    
Max Wind Speed 15 mph    
Max Gust Speed 21 mph    
Visibility 10 miles    
Events      
T = Trace of Precipitation, MM = Missing Value Source: NWS Daily Summary

Daily Weather History Graph

Daily Weather History Graph

Search for Another Location

Airport or City:

Trip Planner

Search our weather history database for the weather conditions in past years. The results will help you decide how hot, cold, wet, or windy it might be!

Date:

Astronomy

Sep. 09, 2012 Rise Set
Actual Time 7:15 AM CDT 7:45 PM CDT
Civil Twilight 6:51 AM CDT 8:09 PM CDT
Nautical Twilight 6:23 AM CDT 8:37 PM CDT
Astronomical Twilight 5:55 AM CDT 9:06 PM CDT
Moon 1:06 AM CDT (9/9) 3:12 PM CDT (9/9)
Length of Visible Light 13h 17m
Length of Day
12h 30m
Last Quarter, 39% of the Moon is Illuminated
Sep 9
Last Quarter
Sep 15
New
Sep 22
First Quarter
Sep 29
Full
Oct 8
Last Quarter

Hourly Weather History & Observations

Time (CDT) Temp. Dew Point Humidity Pressure Visibility Wind Dir Wind Speed Gust Speed Precip Events Conditions
12:53 AM 73.9 °F 44.1 °F 34% 30.03 in 10.0 mi North 3.5 mph - N/A   Partly Cloudy
1:53 AM 70.0 °F 45.0 °F 41% 30.04 in 10.0 mi NNW 5.8 mph - N/A   Partly Cloudy
2:53 AM 66.9 °F 46.0 °F 47% 30.04 in 10.0 mi NW 6.9 mph - N/A   Partly Cloudy
3:53 AM 69.1 °F 45.0 °F 42% 30.04 in 10.0 mi North 8.1 mph - N/A   Partly Cloudy
4:53 AM 71.1 °F 44.1 °F 38% 30.03 in 10.0 mi North 9.2 mph - N/A   Clear
5:53 AM 69.1 °F 45.0 °F 42% 30.05 in 10.0 mi North 8.1 mph - N/A   Partly Cloudy
6:53 AM 64.0 °F 46.0 °F 52% 30.07 in 10.0 mi Calm Calm - N/A   Partly Cloudy
7:53 AM 64.0 °F 48.0 °F 56% 30.10 in 10.0 mi NW 4.6 mph - N/A   Partly Cloudy
8:53 AM 72.0 °F 50.0 °F 46% 30.10 in 10.0 mi NNW 4.6 mph - N/A   Partly Cloudy
9:53 AM 79.0 °F 48.0 °F 34% 30.11 in 10.0 mi NNE 5.8 mph - N/A   Partly Cloudy
10:53 AM 82.0 °F 46.9 °F 29% 30.12 in 10.0 mi NNE 8.1 mph 17.3 mph N/A   Partly Cloudy
11:53 AM 84.9 °F 44.1 °F 24% 30.11 in 10.0 mi NE 13.8 mph 20.7 mph N/A   Scattered Clouds
12:53 PM 88.0 °F 43.0 °F 21% 30.08 in 10.0 mi North 8.1 mph - N/A   Scattered Clouds
1:53 PM 89.1 °F 39.0 °F 17% 30.05 in 10.0 mi NE 8.1 mph - N/A   Scattered Clouds
2:53 PM 91.9 °F 39.0 °F 16% 30.03 in 10.0 mi NNE 5.8 mph - N/A   Partly Cloudy
3:53 PM 91.9 °F 36.0 °F 14% 30.00 in 10.0 mi NW 8.1 mph - N/A   Partly Cloudy
4:53 PM 91.0 °F 36.0 °F 14% 29.98 in 10.0 mi Calm Calm - N/A   Partly Cloudy
5:53 PM 91.9 °F 37.9 °F 15% 29.97 in 10.0 mi NE 5.8 mph - N/A   Scattered Clouds
6:53 PM 89.1 °F 33.1 °F 14% 29.98 in 10.0 mi ENE 10.4 mph - N/A   Scattered Clouds
7:53 PM 84.9 °F 37.9 °F 19% 29.99 in 10.0 mi East 6.9 mph - N/A   Scattered Clouds
8:53 PM 78.1 °F 39.9 °F 25% 30.01 in 10.0 mi East 3.5 mph - N/A   Scattered Clouds
9:53 PM 78.1 °F 39.9 °F 25% 30.01 in 10.0 mi Calm Calm - N/A   Partly Cloudy
10:53 PM 75.0 °F 43.0 °F 32% 30.03 in 10.0 mi Calm Calm - N/A   Partly Cloudy
11:53 PM 68.0 °F 48.0 °F 49% 30.03 in 10.0 mi NNW 4.6 mph - N/A   Partly Cloudy